User: anonymous   Login
Location: Unspecified
(0.0000°N, 0.0000°E)
Time: 21:59:08
(UTC+00:00)
Language:

Cosmos 1803 - Orbit

View from above orbital plane
View from above orbital plane
View from above satellite
View from above satellite

Ground track
Ground track

The orbit data is extracted from the following two-line orbital elements,

1 17177U 86094A   18114.86392019 +.00000003 +00000-0 -51882-4 0  9995
2 17177 082.6106 030.3341 0004735 088.3891 332.9365 12.41552830422738
Epoch (UTC): 24 April 2018 20:44:02
Eccentricity: 0.0004735
inclination: 82.6106°
perigee height: 1496 km
apogee height: 1504 km
right ascension of ascending node: 30.3341°
argument of perigee: 88.3891°
revolutions per day: 12.41552830
mean anomaly at epoch: 332.9365°
orbit number at epoch: 42273

The dashed part of the orbit path shows where the satellite is in the earth's shadow,  

DLR